User: anonymous
Location: Thompson
(55.7500°N, 97.8670°W)
Time: 19:22:21
(UTC-05:00)
Language:

Cosmos 1833 Rocket - Orbit

View from above orbital plane
View from above orbital plane
View from above satellite
View from above satellite

Ground track
Ground track

The orbit data is extracted from the following two-line orbital elements,

1 17590U 87027B   14232.13584281  .00000116  00000-0  81936-4 0  7526
2 17590 071.0047 163.0851 0003105 061.6794 298.4643 14.16646281417950
Epoch (UTC): 20 August 2014 03:15:36
Eccentricity: 0.0003105
inclination: 71.0047°
perigee height: 834 km
apogee height: 839 km
right ascension of ascending node: 163.0851°
argument of perigee: 61.6794°
revolutions per day: 14.16646281
mean anomaly at epoch: 298.4643°
orbit number at epoch: 41795

The dashed part of the orbit path shows where the satellite is in the earth's shadow,  

DLR